Location: downtown San Diego
(32.7310°N, 117.1990°W)
Time: 08:36:52
(UTC-08:00)

Cosmos 2154 Rocket - Pass Details

Date: 19 May 2017
Orbit: 966 x 996 km, 82.9° (Epoch: 22 November)

Event Time Altitude Azimuth Distance (km) Brightness Sun altitude
Rises 22:34:55 0° 352° (N) 3,716 8.0 -28.7°
Reaches altitude 10° 22:37:27 10° 352° (N) 2,766 7.1 -29.0°
Maximum altitude 22:43:48 81° 267° (W) 1,012 4.0 -29.8°
Enters shadow 22:44:04 79° 230° (SW) 1,018 3.9 -29.8°
